Theta_e
312 312 312 313 313 313 313 313 312 313 313 313 314 313 313 314 314 314 314 315 314 314 315 314 314 313 313 313 312 313 311 307 305 303 301 306 310 314 318 315 319 321 321 308 304 305 303 304 303 304 305 305 304 304 305 306 301 302 298 296 293 294 292 296 296 297 298 298 300 299 298 300 300 321 324 328 327 327 326 326 330 334 335 337 339 341 339 336
313 312 312 312 312 313 313 312 312 313 313 313 314 314 313 313 313 314 314 315 315 314 314 314 314 313 312 312 312 312 309 306 303 302 302 312 318 318 322 325 321 321 319 305 303 303 303 302 302 304 303 302 302 303 303 303 303 300 296 295 294 293 297 300 298 298 298 299 299 299 298 298 300 318 319 320 322 324 322 324 328 329 334 337 338 337 335 334
312 313 312 312 313 312 312 312 312 312 312 313 314 314 313 313 313 314 314 314 314 314 314 313 314 313 312 312 312 312 307 303 302 303 311 322 317 321 322 326 326 323 310 304 304 304 304 304 303 304 302 301 302 301 302 300 302 299 298 294 295 297 299 297 298 299 299 299 299 300 298 297 300 307 312 318 321 322 320 321 324 328 328 331 333 335 334 333
312 312 312 312 312 313 312 312 312 312 312 313 314 313 313 314 314 314 313 314 314 313 314 313 313 312 312 312 312 311 306 301 303 309 315 322 320 321 321 326 326 319 309 308 304 304 303 304 303 304 301 301 300 299 300 300 301 299 297 295 296 297 296 300 298 300 299 298 299 298 298 299 300 299 316 321 319 319 322 324 324 325 328 331 333 333 333 332
311 312 312 312 312 312 312 312 312 312 312 313 314 313 313 313 314 314 313 314 314 313 313 312 312 312 312 312 311 310 301 300 304 311 315 326 325 321 322 327 324 315 314 303 302 301 303 303 302 300 301 298 298 300 300 299 299 298 298 299 297 295 296 301 300 298 299 297 298 297 298 299 300 316 316 320 311 309 319 324 325 330 332 332 332 333 333 333
312 312 312 312 311 311 312 312 312 312 312 312 313 313 313 313 314 313 313 313 314 314 313 312 312 311 312 312 310 306 302 289 306 309 330 330 326 323 323 328 325 305 303 303 302 301 302 300 302 300 298 299 298 298 299 299 299 296 297 295 296 298 298 300 299 297 297 298 297 297 299 300 300 301 317 320 315 312 316 316 325 333 334 335 336 334 333 333
311 311 311 311 311 311 311 312 312 312 312 312 312 313 313 313 314 313 313 313 313 313 313 312 311 311 312 310 308 305 297 298 308 312 330 331 325 324 325 326 322 307 303 301 301 301 299 299 300 298 298 297 295 298 299 298 297 298 297 295 298 296 297 299 299 296 297 296 298 298 298 298 298 297 303 317 320 314 325 322 331 335 336 336 333 334 334 333
311 311 311 311 311 311 311 312 311 311 311 311 312 312 313 313 312 313 313 313 312 312 312 312 311 311 311 307 304 302 299 301 308 313 335 329 325 326 325 318 311 305 303 302 301 300 299 300 299 297 299 296 297 298 298 298 296 296 296 297 298 295 298 299 297 297 296 296 298 296 297 298 299 299 308 308 316 321 329 331 334 335 335 334 333 333 334 333
311 311 311 311 311 311 311 311 311 311 311 311 311 312 312 312 312 311 312 312 312 312 311 312 311 311 311 306 301 294 295 305 310 321 330 325 324 320 315 310 308 305 302 299 301 301 301 298 299 300 296 297 297 299 296 297 295 297 298 297 296 297 299 298 297 298 297 297 297 297 298 298 298 303 301 305 316 327 331 332 334 334 332 332 333 334 334 333
311 311 311 311 311 311 311 311 311 311 311 311 311 312 312 312 311 311 311 312 312 312 312 312 311 311 308 305 302 294 300 309 318 322 324 323 317 312 308 310 308 304 302 299 300 300 300 299 302 302 301 298 298 298 296 297 296 297 297 297 298 299 296 297 297 298 294 297 297 298 298 297 298 298 298 313 326 329 330 330 332 332 331 332 332 334 335 333
310 310 311 311 310 310 310 310 311 310 311 311 310 311 311 311 311 311 311 312 312 312 312 310 311 310 304 303 296 291 304 313 317 320 320 318 314 308 308 308 308 307 306 299 302 301 300 301 301 302 302 299 297 295 295 298 297 296 297 296 296 296 296 297 295 297 296 299 297 299 297 297 299 300 300 317 327 330 328 328 329 330 330 331 332 333 334 333
310 310 310 310 310 310 310 311 311 311 311 311 311 311 311 311 311 311 311 311 312 312 311 310 312 308 305 302 298 296 308 313 316 317 317 315 311 309 308 309 308 307 306 302 302 300 302 302 302 302 298 301 296 297 297 297 297 297 297 295 297 295 297 296 297 296 296 299 296 298 297 296 296 298 300 316 327 329 328 326 328 329 330 331 332 332 333 333
310 310 310 310 310 310 310 310 311 311 311 310 309 309 309 309 310 310 310 311 312 311 307 310 311 309 304 298 301 306 309 313 313 311 310 308 305 305 308 307 307 306 307 306 303 301 302 306 306 302 301 301 299 296 297 299 297 297 297 295 295 295 295 296 294 294 295 297 295 298 292 295 297 299 306 323 327 328 326 325 326 327 329 330 331 331 332 334
310 310 310 310 310 310 310 310 310 311 310 310 309 308 308 308 309 309 310 310 312 312 311 311 308 305 303 299 304 307 310 311 312 310 309 309 307 303 305 305 303 303 303 302 302 302 302 304 305 303 303 301 298 302 298 297 296 295 294 295 293 292 292 295 295 295 296 296 295 299 293 295 297 299 299 321 328 326 324 325 326 326 327 328 329 330 330 331
310 310 309 310 310 310 310 310 310 310 310 309 309 308 308 308 308 309 311 311 311 310 308 311 308 304 301 303 309 312 321 312 309 310 311 305 304 303 302 303 303 302 302 303 303 303 302 303 301 298 298 300 301 298 295 294 294 294 292 291 291 291 294 296 297 296 296 296 296 298 293 295 298 299 298 322 326 326 324 324 325 325 326 327 328 329 329 330
309 309 309 309 309 309 310 310 310 309 310 309 309 308 308 309 309 310 310 311 311 309 310 306 305 303 299 296 304 314 313 307 308 311 310 307 305 303 303 302 301 302 303 302 303 304 303 303 299 300 300 297 297 295 294 293 293 293 292 292 290 291 293 295 295 296 297 297 296 297 293 295 296 298 297 316 326 325 324 323 324 324 325 325 327 327 328 327
309 309 309 309 309 309 309 309 309 309 309 309 308 308 308 307 309 310 312 311 310 310 308 303 305 305 297 303 309 303 304 308 309 308 307 307 303 302 303 302 301 300 302 303 304 302 302 300 298 298 297 295 294 295 291 290 290 291 292 292 292 291 293 292 298 297 295 296 295 296 294 296 298 297 306 319 325 324 323 323 323 324 325 325 326 327 327 327
309 309 309 309 309 309 309 309 309 309 308 308 307 307 307 308 310 311 310 308 309 309 307 309 304 299 296 300 299 300 305 304 304 306 305 306 304 304 303 300 299 300 300 299 302 299 300 298 298 295 295 296 294 294 290 286 289 290 291 292 291 291 292 293 293 296 296 294 296 295 295 296 298 297 309 321 324 324 323 323 323 324 324 324 325 325 326 327
309 309 309 309 309 309 309 309 309 308 308 307 308 310 310 309 309 309 305 304 302 296 296 298 297 294 290 296 300 302 305 305 304 306 302 303 302 304 304 302 301 299 295 296 295 299 297 297 297 294 291 292 293 293 292 291 292 292 292 292 292 291 292 292 296 296 297 297 296 294 294 296 298 298 299 319 323 322 323 323 323 323 324 324 324 325 326 326
308 309 309 309 309 309 309 309 308 307 307 305 306 307 305 304 302 302 303 302 300 303 303 303 301 300 301 303 304 308 307 306 304 302 303 304 303 302 302 301 298 298 296 295 295 298 297 293 291 291 293 295 296 296 297 292 294 292 292 292 291 291 293 294 294 296 297 296 297 297 297 297 297 298 299 318 321 321 321 321 321 322 323 323 323 324 325 326
308 309 309 309 308 309 309 308 308 307 306 305 303 303 299 297 295 296 298 303 305 305 303 305 303 303 303 303 304 306 304 304 304 303 303 309 303 302 299 299 297 296 295 293 296 298 297 292 292 295 296 297 298 295 296 294 295 293 292 291 291 291 293 296 295 294 298 297 295 293 294 295 297 298 297 314 320 318 320 322 322 322 323 323 323 323 325 327
308 308 309 308 309 309 309 308 308 307 306 304 302 300 301 303 303 305 303 297 302 305 305 305 305 303 306 305 306 307 306 302 304 304 303 305 301 299 296 297 294 294 295 294 295 295 293 290 295 298 295 295 294 295 297 297 294 294 292 292 292 294 293 296 293 295 296 296 295 293 293 295 296 296 297 313 319 321 323 324 324 323 322 322 322 323 325 325
308 308 308 309 308 309 308 308 307 306 305 301 301 299 301 307 308 307 306 300 297 303 303 303 301 302 303 307 307 308 301 300 299 301 300 303 298 299 297 295 295 293 292 295 293 291 290 292 298 295 295 297 294 294 296 296 297 294 292 292 291 292 291 292 296 296 297 294 295 293 293 295 297 299 299 302 317 312 318 322 322 325 323 322 322 323 324 325
307 308 308 308 308 308 308 307 304 302 300 300 300 301 306 307 307 307 303 297 297 301 302 304 304 303 303 303 308 306 302 301 301 302 306 302 299 297 297 295 292 293 293 292 294 292 291 294 293 294 295 296 296 295 295 294 292 294 295 293 292 292 293 293 294 296 296 297 295 295 295 294 296 296 297 301 304 309 315 319 321 323 325 325 325 325 326 326
307 307 308 308 308 308 307 306 302 302 302 299 299 304 307 308 308 307 303 300 298 299 307 304 305 305 306 310 308 303 302 301 303 305 304 303 296 297 297 295 296 292 292 290 291 291 292 295 295 294 292 294 296 293 295 295 292 293 295 295 295 295 295 292 294 295 295 294 297 293 289 290 296 295 297 298 303 310 310 316 318 321 323 323 322 324 326 327
307 307 307 308 308 307 307 301 301 302 299 298 303 308 309 307 307 308 304 293 289 297 302 296 308 300 311 303 306 304 304 299 305 306 302 303 305 300 296 295 296 292 290 291 293 295 294 294 295 295 295 293 293 294 295 296 293 291 294 297 296 294 294 295 293 294 291 289 295 295 289 287 295 295 296 297 298 305 308 313 317 319 321 323 323 324 325 325
307 307 307 307 307 307 299 296 302 301 293 298 303 306 305 305 311 307 299 289 285 298 297 300 301 300 308 304 304 303 292 296 301 302 302 306 301 303 296 293 294 293 293 297 293 291 293 293 293 295 294 293 292 291 295 295 293 291 297 294 294 293 294 295 295 295 293 296 295 294 294 290 289 294 297 295 299 301 304 308 313 317 320 321 323 324 325 325
307 307 307 307 307 306 302 302 299 298 296 300 305 305 304 306 310 310 298 278 280 298 296 297 300 308 305 304 305 299 299 302 297 300 303 304 303 298 297 293 294 294 293 294 287 295 296 293 294 293 294 292 292 294 297 296 294 294 294 294 294 295 296 295 295 295 293 293 291 294 293 291 290 295 297 297 297 299 301 304 309 314 317 320 322 323 324 325
307 307 307 307 306 306 305 302 299 296 301 304 305 305 304 309 308 300 287 277 295 296 307 296 307 303 300 304 301 300 299 300 296 298 301 302 302 300 295 295 294 293 293 295 292 295 293 296 295 296 294 292 295 293 295 295 294 294 293 294 294 294 293 295 295 294 293 291 287 292 292 289 289 294 295 295 297 298 301 304 306 310 314 318 319 321 323 324
307 306 306 306 305 304 302 303 299 304 304 304 305 305 307 308 304 290 281 275 294 289 296 298 298 295 300 298 298 300 297 298 298 298 300 299 300 300 296 298 295 293 293 294 293 295 295 298 297 295 294 296 294 292 294 296 294 294 294 296 294 294 294 294 293 293 292 285 289 290 290 290 286 293 295 295 296 297 298 301 301 302 309 314 318 320 320 321
307 306 306 306 300 302 302 296 300 303 304 305 304 304 307 299 291 282 275 287 293 295 298 296 295 298 297 296 294 298 297 297 296 298 296 298 297 298 297 295 298 295 294 296 293 294 295 294 295 297 299 294 295 292 292 292 293 294 295 294 294 293 295 294 293 294 286 284 289 289 290 291 286 290 295 297 298 297 297 298 300 301 302 309 315 317 319 321
306 306 306 304 304 303 295 295 297 302 302 304 307 305 300 286 288 280 280 297 286 291 292 292 295 294 294 294 294 295 295 296 298 297 295 295 294 294 294 292 294 287 287 289 289 293 293 294 294 294 302 297 294 294 292 293 293 294 294 294 289 286 286 283 288 283 284 284 289 291 289 289 289 293 295 297 299 299 299 299 300 301 301 302 305 314 317 318
305 305 307 305 306 303 303 304 304 305 304 303 301 299 293 283 277 285 285 290 287 295 293 295 294 294 293 292 292 292 295 294 298 294 296 294 293 294 294 294 294 294 287 291 288 289 292 293 291 294 295 298 297 292 290 290 293 292 292 291 287 282 280 276 281 283 285 289 290 290 290 288 292 294 296 296 299 301 302 303 304 304 304 304 303 307 314 316
305 305 303 304 305 305 306 307 305 304 301 305 303 294 286 278 279 296 288 289 289 295 294 293 293 292 292 292 293 294 291 294 294 295 295 292 293 291 292 292 292 293 296 288 288 289 284 287 292 293 292 296 296 296 295 296 292 293 293 293 290 288 283 276 282 279 282 286 289 289 288 287 288 291 297 298 299 302 306 307 307 308 308 308 304 305 313 314
304 304 303 301 301 304 306 306 305 306 302 302 296 291 281 280 284 287 289 292 294 294 292 293 291 291 291 291 292 293 295 293 295 294 293 292 291 292 292 292 292 294 293 289 290 287 287 288 294 294 294 293 295 295 295 292 292 290 291 294 290 288 294 285 285 287 287 286 285 287 287 290 292 294 297 298 303 305 306 307 308 308 309 309 309 310 311 312
302 301 300 300 301 305 303 305 305 304 301 299 292 284 283 286 285 288 289 297 293 290 291 289 290 290 289 290 293 292 295 293 293 293 291 293 293 292 293 293 293 294 293 290 291 287 286 287 292 293 293 295 295 294 294 295 288 291 290 290 291 296 294 283 283 284 282 285 284 286 289 291 295 293 296 299 301 301 302 303 307 307 308 310 309 310 312 313
298 300 302 303 303 306 305 305 304 302 300 296 289 284 289 288 289 291 296 293 292 292 289 285 289 288 289 288 291 291 292 295 292 292 289 292 291 292 291 293 294 294 297 297 289 293 289 289 293 291 291 293 292 293 293 292 295 291 288 291 293 295 297 291 283 282 283 282 282 286 285 287 289 287 295 297 296 298 298 298 305 307 308 308 309 311 312 313
296 296 302 301 303 306 305 305 303 301 299 293 285 290 289 289 292 293 296 295 293 292 290 286 288 289 286 288 290 291 293 290 292 291 290 291 290 295 292 294 295 295 296 296 294 293 292 287 292 289 291 293 294 294 293 293 292 294 293 296 292 286 285 288 287 277 278 277 281 285 283 286 288 290 292 294 294 295 297 298 301 304 305 307 308 310 311 312
296 298 299 300 305 305 304 305 303 298 295 287 284 285 289 289 292 294 297 296 293 291 288 288 287 289 288 288 289 291 292 289 292 290 289 290 288 294 292 293 292 293 295 296 294 292 295 287 290 290 290 292 293 293 287 290 293 292 293 292 291 294 292 286 287 289 288 279 277 281 285 285 289 290 291 293 295 295 296 297 298 303 305 306 307 309 309 311
297 296 294 302 305 305 305 305 300 296 291 283 287 287 290 290 294 297 297 297 292 292 290 290 288 289 291 289 289 290 291 291 291 291 290 293 291 295 293 294 292 292 292 296 294 294 289 293 284 291 291 290 288 291 290 290 289 289 292 289 290 290 289 291 289 287 286 281 281 281 280 286 290 292 292 293 294 295 295 296 298 303 305 306 306 308 309 310
294 296 294 304 304 305 306 302 294 289 288 289 288 288 292 292 296 297 297 297 296 295 292 290 291 289 291 290 289 290 290 291 293 291 291 291 291 290 295 293 293 292 293 293 293 295 289 288 287 290 289 289 289 290 289 288 290 292 292 290 290 287 286 284 282 285 285 286 279 280 280 289 291 294 293 293 295 295 297 297 298 304 305 306 307 308 308 309
297 290 292 304 305 305 301 291 293 291 291 289 287 293 290 301 294 294 295 294 295 294 294 293 291 291 290 290 291 290 291 291 291 292 292 291 292 292 293 293 293 293 293 291 293 295 296 291 291 285 287 288 289 291 291 291 290 289 291 290 289 290 291 288 281 283 285 284 285 288 284 285 292 294 294 294 296 297 298 298 302 304 305 305 306 306 307 307
295 292 301 303 306 305 299 292 292 290 291 293 294 294 294 296 294 295 293 293 292 292 292 290 292 290 291 290 289 289 289 290 290 291 291 295 292 293 293 295 294 295 293 292 293 293 306 290 287 285 288 290 292 293 293 291 290 290 289 288 289 291 291 292 292 291 286 284 284 284 282 286 292 294 294 295 298 299 301 303 304 304 304 304 303 304 304 304
294 296 298 303 305 302 295 285 286 286 290 293 292 290 291 293 292 291 292 291 291 290 289 290 291 290 290 290 291 288 291 287 289 289 290 292 294 296 295 296 297 300 296 294 296 300 288 289 289 283 283 285 288 291 291 291 291 289 288 288 286 288 288 288 288 289 286 285 286 285 280 284 290 294 295 296 297 298 298 299 302 302 302 301 301 301 301 301
295 296 296 299 303 301 290 290 289 285 288 288 289 287 288 291 292 291 291 290 292 289 289 289 290 291 290 291 290 289 290 288 289 289 291 291 292 295 293 293 300 302 302 302 300 297 291 286 287 282 279 277 277 278 281 285 287 286 286 286 286 289 289 290 286 287 284 285 283 285 284 286 291 293 293 294 296 297 298 299 299 299 299 299 299 299 300 300
292 286 291 295 297 298 296 297 292 289 286 287 285 286 288 286 291 292 292 290 291 290 289 288 289 290 289 290 291 289 289 290 290 289 289 290 291 293 293 293 299 300 301 303 302 296 287 288 285 286 286 285 285 284 285 285 287 286 286 286 286 285 287 291 291 286 285 284 285 286 288 287 289 289 290 292 293 292 294 296 296 297 297 298 299 298 299 299
292 288 285 285 294 294 291 293 289 290 287 289 284 286 285 286 287 290 292 289 290 290 288 287 286 289 287 290 288 288 287 289 289 289 286 287 289 291 293 291 292 297 304 300 299 293 290 285 286 285 284 283 284 284 286 286 285 284 286 286 287 287 288 292 288 286 290 286 283 288 287 289 286 287 289 290 292 293 294 294 295 296 296 297 297 298 298 298
287 287 291 292 287 285 286 288 290 288 290 289 286 288 285 285 285 284 288 291 291 290 288 288 287 286 284 286 289 286 286 287 287 285 288 287 288 291 290 292 290 293 299 295 296 298 291 284 285 286 283 285 286 287 287 286 285 285 285 285 285 286 289 288 284 284 289 287 286 287 288 286 285 287 288 289 291 292 292 293 294 295 295 295 295 295 295 296
291 289 292 292 287 287 289 289 291 290 288 290 286 287 285 285 284 285 284 287 288 287 288 283 285 285 286 287 288 285 284 285 283 287 286 287 287 288 289 291 292 292 294 297 295 294 292 284 286 286 285 286 286 286 288 287 286 286 285 285 286 287 285 286 285 286 287 287 288 287 287 284 287 287 288 289 292 292 292 293 293 292 292 293 293 292 293 293
289 288 289 290 290 288 288 290 290 289 285 288 285 286 285 285 285 286 286 286 284 286 288 286 284 286 286 286 286 284 284 285 285 283 287 287 289 289 287 287 287 292 292 292 293 295 295 286 289 286 285 284 285 287 287 287 287 286 287 287 287 287 287 286 286 287 287 286 287 288 285 284 287 289 289 290 290 291 291 290 290 291 291 292 291 291 291 292
292 292 290 288 284 286 288 286 287 286 285 285 284 286 286 286 285 287 285 288 286 284 285 284 285 287 286 287 287 285 286 286 286 287 289 287 285 289 287 288 289 288 289 290 292 292 296 288 289 287 282 282 285 286 286 287 287 286 286 287 287 288 286 285 284 285 287 285 286 287 285 284 287 288 288 289 289 288 288 289 289 290 290 291 290 290 291 291
293 292 291 290 284 285 283 285 286 287 282 285 286 285 284 285 286 288 284 288 288 288 287 286 287 287 287 287 286 286 288 288 288 289 289 290 290 289 289 289 288 287 288 288 289 291 292 288 285 286 283 280 284 284 284 285 285 284 285 284 283 283 285 284 285 285 287 288 287 287 287 287 287 288 287 287 288 288 288 288 289 289 290 290 290 290 290 291
Wind_Speed
12 12 11 11 12 11 11 11 11 11 11 11 11 11 11 11 11 11 13 11 10 12 11 11 11 12 11 12 12 12 8 11 11 7 5 14 8 9 11 1 15 17 8 3 7 9 5 5 6 1 4 3 1 3 2 2 1 2 4 2 4 1 6 4 6 7 2 2 3 6 5 5 6 2 3 3 6 5 4 4 3 5 7 5 9 16 17 15
13 12 12 12 12 12 11 11 11 11 10 11 11 10 10 11 11 11 11 12 11 10 11 11 11 11 11 11 12 9 9 9 11 9 18 5 9 12 10 2 10 15 9 2 9 7 10 5 4 5 6 4 2 1 1 3 1 3 2 2 6 4 3 4 2 4 1 2 4 3 3 2 3 4 2 2 3 7 5 3 3 7 9 12 15 17 17 16
13 13 12 12 12 11 11 11 11 11 11 11 11 10 10 10 10 11 11 10 11 10 10 11 11 11 11 12 12 6 9 7 5 8 8 11 13 13 10 5 10 16 11 5 4 7 10 10 8 7 1 3 2 3 2 2 3 1 3 5 3 6 4 4 2 3 5 3 8 6 1 4 4 3 1 2 6 4 7 5 3 5 8 12 15 15 16 15
14 13 13 12 12 11 11 10 10 10 10 11 11 10 10 11 10 10 10 10 10 10 11 10 11 11 12 11 10 8 6 5 1 1 2 2 13 12 12 8 13 12 5 2 5 4 4 7 6 4 3 3 2 1 6 3 4 3 3 3 2 3 3 3 7 8 5 3 4 1 3 3 4 2 3 5 6 4 6 7 7 10 13 15 15 15 15 15
14 14 13 12 12 12 11 11 10 10 10 10 10 10 10 10 10 9 10 10 9 10 10 10 10 11 12 11 8 6 4 2 2 3 2 3 11 13 14 11 13 5 3 6 7 5 5 7 6 2 2 4 1 2 2 3 2 4 4 1 3 3 4 7 4 3 3 1 3 1 6 4 1 2 3 9 5 3 5 4 3 8 17 19 18 16 14 16
14 14 13 13 12 12 11 11 11 10 10 10 10 10 10 10 10 9 9 9 10 9 9 9 10 11 11 7 3 2 2 2 1 2 4 5 12 15 15 13 11 7 9 7 5 4 8 3 7 6 3 4 6 8 2 1 3 5 1 3 3 3 5 2 1 2 4 1 1 6 2 3 2 2 4 5 6 3 2 2 6 13 17 17 17 17 16 16
14 14 14 13 13 12 12 11 11 10 10 9 9 9 9 9 9 9 9 8 8 9 9 8 9 10 11 6 1 2 1 6 3 2 6 10 14 15 15 13 10 7 5 7 6 6 2 5 3 4 5 3 0 2 4 4 2 4 4 2 4 6 8 3 4 2 3 1 4 1 2 6 2 5 1 5 7 2 5 2 10 15 16 17 18 17 17 18
15 15 14 14 14 13 12 11 10 10 10 9 9 9 9 9 8 8 8 8 8 8 8 8 8 9 8 5 1 2 1 5 2 3 2 13 14 14 13 7 7 6 6 8 8 5 5 7 8 3 4 6 4 7 4 4 1 5 4 4 3 3 6 4 4 6 5 5 3 3 4 5 4 3 4 7 3 1 4 7 13 16 17 16 17 17 16 16
16 16 15 14 14 13 12 11 10 10 10 9 9 9 9 8 8 8 7 7 7 7 6 7 7 7 4 1 1 3 2 4 1 3 5 11 11 12 12 9 5 9 5 4 1 7 8 3 3 5 4 4 2 7 3 6 5 6 6 3 1 5 4 3 5 8 6 3 3 3 7 3 5 3 5 4 4 3 7 10 13 16 17 17 17 17 16 15
16 16 15 15 14 14 13 12 11 10 10 9 9 9 8 8 8 7 7 6 6 6 5 6 7 7 3 2 1 2 1 2 2 3 5 10 10 10 2 7 10 9 8 2 5 5 4 5 6 6 5 4 4 3 3 6 2 4 4 5 5 3 4 2 4 2 2 3 4 3 5 3 1 3 3 3 3 7 9 10 12 15 17 16 15 15 15 16
16 16 15 15 15 14 14 13 12 11 10 10 9 9 8 8 7 7 7 6 6 6 5 4 4 4 2 2 1 4 0 2 2 4 7 9 9 8 8 9 8 7 6 3 5 5 2 4 2 3 1 2 6 3 3 2 3 3 3 2 4 5 5 5 4 7 1 5 7 8 3 3 2 3 3 3 6 8 11 11 13 13 14 14 15 15 13 12
16 16 16 15 15 15 14 13 12 11 10 9 9 9 8 7 7 6 6 5 5 5 4 5 3 1 1 0 3 6 2 2 2 4 6 8 6 1 3 8 9 9 9 7 5 2 2 2 3 1 2 4 3 2 3 2 1 1 3 3 2 3 4 4 6 1 4 3 4 5 1 3 2 5 1 4 8 9 11 13 13 14 13 14 14 12 12 11
16 16 16 15 15 15 15 14 13 11 10 9 9 8 8 8 7 6 5 5 3 2 3 3 1 0 1 4 7 6 1 1 4 5 4 2 4 4 5 1 2 2 4 7 4 3 4 3 3 3 2 2 1 0 3 1 0 2 3 1 3 2 3 1 1 1 4 2 5 6 7 4 6 6 2 6 9 10 11 12 13 12 12 12 13 13 12 10
16 16 16 15 15 15 15 14 14 12 10 9 9 8 7 7 6 5 5 4 2 2 4 2 1 1 0 6 4 2 3 2 4 4 4 3 5 3 5 4 4 3 3 5 3 3 6 2 3 4 2 1 0 0 2 1 1 3 1 0 1 1 4 2 1 3 5 2 6 4 7 3 4 6 4 5 9 13 11 11 13 12 12 12 12 12 12 11
16 16 16 15 15 15 14 15 14 13 11 9 9 8 7 6 5 5 4 3 1 3 2 2 2 1 1 7 4 8 4 4 5 5 8 7 6 5 4 4 5 4 2 3 2 1 1 3 1 1 0 2 1 1 0 1 3 2 4 3 1 3 2 4 2 6 6 3 1 5 5 7 5 1 3 8 9 9 9 11 12 12 12 12 12 12 12 10
17 16 16 16 15 15 14 14 14 13 11 9 9 8 7 6 4 3 2 4 4 2 3 1 2 2 1 6 2 1 2 2 2 4 4 4 6 3 6 6 4 4 3 0 2 2 2 4 1 1 1 2 3 3 2 3 1 2 3 1 2 1 1 4 3 3 3 3 1 7 4 1 6 0 2 8 11 10 9 11 12 13 13 11 12 11 11 9
17 17 16 16 16 15 14 14 14 14 12 10 10 8 6 6 5 6 3 2 3 2 2 1 2 2 1 1 4 3 1 3 1 3 4 1 3 9 11 8 3 3 3 3 4 1 2 2 2 1 4 1 1 2 4 1 1 3 2 2 1 3 3 3 1 2 1 3 5 4 6 7 2 2 1 9 11 11 9 12 13 13 12 12 12 12 12 10
18 17 17 16 16 15 14 14 14 13 11 10 8 5 3 2 2 3 4 3 2 2 1 0 1 2 7 3 3 1 1 3 1 4 3 2 6 9 7 4 4 6 5 3 2 3 2 2 3 2 1 1 2 3 5 6 6 5 4 3 3 2 3 3 2 2 2 2 4 2 8 9 8 1 2 9 11 10 9 10 12 13 12 12 11 12 12 11
18 18 17 17 16 15 15 14 13 13 11 10 6 2 3 3 1 0 2 1 3 1 1 3 2 3 1 2 2 4 3 3 3 5 4 9 3 3 4 4 11 11 4 2 1 2 1 2 1 1 4 3 5 4 6 2 4 5 4 2 1 2 3 3 4 1 3 4 5 8 8 10 12 6 3 7 11 11 7 8 9 10 10 10 11 11 12 11
19 18 18 17 16 15 14 14 12 11 10 5 2 1 1 2 1 2 1 2 6 8 10 4 7 4 7 7 7 6 1 2 2 0 5 1 8 5 2 3 3 2 4 5 3 3 0 4 4 5 4 6 5 5 3 4 3 5 3 3 2 2 4 5 5 3 2 2 7 7 10 9 7 7 5 7 9 10 11 11 11 11 11 12 12 12 12 13
19 19 18 17 17 16 14 13 10 10 6 3 3 2 2 1 2 3 3 9 9 7 9 10 14 11 7 2 1 3 3 2 2 1 6 4 4 10 1 2 2 4 1 1 4 1 2 3 5 6 7 6 4 5 6 5 2 2 3 2 2 3 4 3 3 2 3 3 1 2 4 9 11 1 2 5 9 12 13 12 11 14 13 12 13 13 13 11
19 18 18 18 17 16 15 13 11 7 2 1 2 2 2 4 2 1 1 8 5 13 12 15 1 9 3 7 1 2 2 3 4 1 1 6 6 8 1 2 3 6 1 2 3 3 3 5 5 7 5 6 5 5 4 5 5 3 3 1 3 4 5 9 1 2 1 3 3 1 4 6 6 0 1 9 13 7 10 9 10 13 14 12 12 13 12 11
19 18 18 18 18 17 16 15 5 2 3 2 2 1 4 2 2 2 3 5 12 5 10 7 5 11 9 2 4 6 6 7 5 3 7 5 4 4 6 4 3 3 2 2 5 2 4 5 9 5 7 8 4 3 6 5 2 3 3 3 5 2 1 3 3 1 3 1 2 3 3 1 2 0 1 3 6 2 3 5 4 9 12 13 13 12 12 13
19 18 18 17 18 19 16 13 4 2 3 4 2 7 3 2 2 4 4 4 8 2 6 6 9 4 7 4 7 11 9 4 4 5 1 7 7 3 5 4 4 3 4 5 6 6 4 2 3 8 6 7 6 3 6 4 5 1 4 3 4 4 4 4 1 1 0 2 0 4 4 2 3 2 2 3 1 3 0 5 4 7 10 9 9 11 13 14
19 18 18 18 18 19 18 8 1 2 1 2 6 8 7 6 1 2 3 4 3 5 1 1 3 5 5 3 6 10 5 2 7 1 7 8 6 5 4 2 3 4 2 3 4 2 7 4 6 7 3 3 6 3 7 7 4 2 6 10 9 5 4 4 3 3 2 3 2 3 2 3 1 1 0 1 2 8 1 5 8 7 10 10 12 13 13 12
19 18 18 18 19 20 16 1 1 1 2 6 5 3 4 3 4 4 1 3 5 3 2 1 3 1 5 4 7 1 8 5 5 5 6 5 5 5 3 2 0 6 5 7 4 2 3 4 6 4 5 4 5 4 3 6 3 2 5 11 12 3 1 2 1 1 2 3 2 1 3 3 2 4 2 1 2 7 3 5 7 8 10 11 12 12 12 11
19 18 18 18 17 16 5 1 2 3 4 3 1 1 3 4 2 4 2 2 2 2 1 2 1 1 2 4 8 6 5 4 3 5 6 3 9 1 6 3 1 4 2 3 2 5 4 3 4 4 5 4 4 6 7 11 6 6 1 5 6 5 6 4 3 4 1 2 1 2 2 3 4 3 1 3 4 6 7 6 7 8 10 11 10 11 11 10
19 18 18 17 15 9 4 6 6 2 7 2 1 3 4 3 3 1 1 3 2 1 0 2 2 1 2 4 6 4 2 6 7 6 2 5 5 1 2 5 8 8 5 4 8 1 5 5 4 4 2 3 4 5 6 11 7 1 2 5 9 8 5 4 3 2 1 2 3 2 4 3 1 1 2 3 7 6 8 9 9 10 10 9 10 10 11 11
20 19 17 16 15 12 7 5 2 7 4 2 4 4 4 1 2 3 1 0 1 0 1 3 3 4 3 4 6 4 1 2 1 3 1 3 4 3 5 7 4 4 1 4 6 1 3 5 7 6 5 4 4 2 9 13 7 1 6 8 7 6 5 1 1 2 1 2 3 2 6 3 2 1 1 3 2 0 1 3 7 9 9 9 9 9 10 9
21 20 18 15 11 3 2 4 9 8 4 7 7 6 2 2 1 1 2 4 3 2 1 2 1 2 4 7 4 4 4 2 2 3 3 5 4 3 4 3 5 4 5 2 3 1 3 2 2 3 5 3 4 3 1 1 2 7 4 8 4 4 2 2 4 1 2 2 1 4 3 3 5 2 1 2 3 2 4 2 2 2 7 8 8 10 9 9
22 22 17 13 5 2 2 4 9 8 6 5 7 4 2 6 3 3 4 4 2 2 0 1 2 3 7 8 5 3 0 1 3 7 5 2 4 3 3 4 5 3 2 2 4 1 1 2 2 3 2 4 4 6 3 2 3 4 2 3 5 3 2 2 2 2 1 3 2 3 2 3 5 3 1 2 3 2 3 6 8 5 4 7 6 7 8 9
24 23 19 9 7 4 5 5 1 2 4 7 4 3 3 3 3 4 4 3 1 1 3 2 1 2 5 1 1 5 6 2 3 6 8 6 7 7 5 5 5 3 3 3 5 3 4 7 1 4 2 4 4 6 3 1 0 2 4 4 5 2 0 3 2 4 5 2 3 3 1 2 2 2 3 7 6 5 3 5 7 9 9 6 6 6 5 4
23 23 22 10 9 9 13 10 4 6 9 9 4 2 3 2 6 4 5 2 1 2 2 3 2 2 0 4 4 2 2 7 2 2 3 2 6 7 2 4 5 5 2 2 2 1 3 1 2 3 1 4 6 6 5 4 4 4 6 4 6 3 2 2 1 2 3 3 1 1 1 2 3 0 3 6 7 8 8 6 6 7 8 9 8 4 3 4
24 21 10 2 7 10 6 4 4 4 4 1 2 5 5 2 5 2 7 3 3 2 2 1 5 2 4 5 4 7 4 2 6 5 5 4 5 4 4 0 4 3 3 2 3 3 2 3 5 5 4 3 8 8 9 4 9 6 3 7 5 6 4 3 4 4 5 3 2 1 3 3 8 3 5 6 6 7 6 6 5 4 5 6 5 3 4 7
22 14 4 1 3 7 11 8 3 2 2 3 3 4 6 6 1 3 3 2 2 3 3 2 2 1 3 2 2 3 3 4 4 6 5 6 4 3 6 6 4 3 3 4 2 1 1 3 2 2 2 2 8 0 5 7 5 1 1 3 4 4 3 5 1 3 4 3 1 3 1 1 3 1 3 3 2 6 8 10 8 8 5 3 5 6 7 8
11 2 0 2 2 3 5 5 6 4 4 5 5 3 7 6 4 4 1 2 1 2 5 3 2 2 1 2 2 1 2 2 3 4 1 5 3 6 3 3 8 10 6 5 4 4 1 3 1 2 2 3 3 3 2 2 6 5 4 6 1 4 7 5 2 3 2 1 2 2 3 2 2 3 2 2 3 7 8 10 9 9 7 6 7 8 9 10
2 4 3 4 2 1 3 6 7 6 2 4 4 6 5 3 4 3 2 1 1 1 2 1 1 1 0 2 1 1 1 3 1 3 4 2 2 6 3 5 2 7 9 7 1 2 3 2 1 1 2 3 2 1 4 5 1 8 5 5 5 1 4 2 3 1 0 4 2 1 1 1 4 4 1 1 4 5 8 10 8 9 8 8 6 6 9 12
4 3 2 4 11 4 3 7 9 5 2 5 7 4 1 4 2 2 1 1 1 3 2 1 2 1 1 2 1 2 2 4 2 2 3 5 2 3 4 4 6 10 11 1 5 2 2 3 1 1 1 1 2 3 6 4 5 1 1 8 5 2 5 2 3 1 3 3 1 2 1 2 2 1 7 9 11 11 11 9 9 10 10 8 6 5 5 8
1 0 2 10 9 2 3 7 4 7 5 5 3 4 3 4 2 2 2 2 2 2 2 2 2 3 1 1 2 2 1 4 2 2 4 3 4 3 1 2 3 2 1 6 3 3 1 3 3 0 2 2 1 1 6 3 4 5 5 6 3 2 2 5 1 1 6 3 1 2 2 2 1 2 6 10 9 10 10 8 8 8 9 7 6 6 7 7
2 2 3 5 7 4 6 2 2 4 3 6 4 4 1 3 4 4 4 3 1 3 2 0 2 2 1 2 0 2 1 0 3 3 2 1 2 3 2 2 2 2 2 5 3 1 2 1 2 1 2 0 5 1 3 5 6 3 4 2 2 3 2 2 3 0 4 3 2 3 3 3 2 3 6 9 9 10 8 7 5 6 8 8 8 7 6 7
1 3 1 5 5 2 2 2 3 4 2 1 1 1 1 1 2 2 0 3 1 1 2 3 3 2 1 3 2 1 2 1 1 2 3 2 1 1 3 3 1 2 2 5 5 2 2 2 4 1 1 3 1 3 3 3 2 4 7 5 6 8 7 7 5 2 1 3 3 4 4 3 3 4 5 7 8 8 7 4 2 6 8 8 7 8 8 7
3 4 6 11 5 1 3 1 3 0 2 1 2 2 1 1 0 3 1 3 2 2 2 1 2 4 3 4 4 1 2 3 0 1 1 2 2 2 3 5 1 2 1 3 4 1 1 3 3 1 1 1 2 3 2 2 2 1 2 3 3 1 3 4 4 4 1 1 1 2 1 2 3 4 5 6 6 7 6 3 6 8 9 9 9 9 9 9
5 3 4 7 5 4 2 2 2 2 2 2 5 2 3 1 1 1 1 2 1 1 1 2 3 3 3 3 0 2 2 3 1 1 1 2 2 1 5 6 4 3 3 2 2 1 1 2 4 2 1 3 4 4 3 3 1 0 5 3 3 4 2 2 1 5 5 4 3 2 3 3 3 6 5 6 6 7 7 5 7 10 9 9 9 9 8 9
0 1 3 6 10 2 6 2 2 3 3 5 3 2 3 0 4 4 2 3 3 4 1 1 1 1 2 1 1 2 0 3 1 1 2 1 2 2 6 7 3 4 4 2 1 3 1 2 2 3 1 1 1 1 1 1 2 2 1 1 2 4 5 3 4 2 2 5 1 6 6 2 2 4 6 8 9 10 10 9 7 9 9 8 9 9 9 10
0 2 1 6 9 8 5 2 2 1 2 4 4 9 9 4 2 2 1 4 3 2 1 1 2 4 1 1 2 1 3 2 1 3 1 2 2 3 4 6 4 6 2 4 5 2 5 2 1 4 6 6 7 5 4 3 2 1 1 0 1 4 10 5 3 3 3 4 2 2 1 4 5 6 9 11 10 10 10 9 9 10 10 9 9 10 10 11
4 1 5 6 5 6 5 1 1 2 1 2 4 4 5 4 2 4 2 7 5 2 5 3 1 3 3 1 2 3 4 3 1 2 3 2 3 3 2 5 3 6 5 9 6 6 4 2 4 4 3 3 3 1 1 3 1 3 2 4 4 3 2 3 3 2 4 5 4 1 1 9 2 9 9 10 10 9 9 9 9 9 10 10 11 10 10 10
2 4 2 5 6 6 3 6 7 6 2 3 3 6 7 7 4 1 6 3 9 4 3 8 6 2 4 2 2 3 3 2 4 4 5 2 2 2 6 3 1 8 1 5 2 6 5 3 4 5 9 4 1 0 3 3 4 4 3 4 4 3 4 4 3 2 4 8 3 3 2 7 3 5 7 7 8 8 9 8 8 9 9 9 10 11 13 14
4 1 1 1 2 4 6 5 10 6 9 5 5 4 7 7 10 5 5 5 1 7 2 2 11 9 2 2 1 3 6 3 5 2 3 2 2 5 1 5 7 8 6 3 3 5 6 3 2 6 5 6 5 6 5 7 7 5 5 5 7 8 4 4 2 2 2 3 2 7 5 7 4 5 5 6 7 8 9 8 8 8 9 10 13 14 14 15
3 0 1 3 1 3 3 6 7 6 9 10 3 9 10 11 11 7 3 5 4 7 9 3 8 10 10 3 1 4 5 1 3 3 3 5 4 3 3 3 1 9 7 3 5 2 6 2 1 2 4 8 11 9 8 10 4 6 10 9 7 9 9 9 8 5 3 6 7 12 12 10 5 4 5 5 5 7 7 7 9 11 11 12 14 15 15 15
3 2 2 4 4 3 6 3 5 6 8 10 4 9 5 9 9 10 7 7 3 5 7 4 6 6 8 12 7 6 5 5 3 2 2 3 1 5 2 2 4 5 6 2 1 3 5 1 5 2 4 6 7 6 8 10 8 6 5 5 6 7 12 10 9 8 10 11 8 11 12 9 4 3 5 5 4 5 9 13 12 10 11 13 15 15 15 15
0 1 0 1 4 6 4 5 4 5 4 7 6 7 5 10 8 9 4 4 8 4 6 5 5 4 0 7 10 7 2 3 5 6 5 3 2 2 3 1 4 5 7 4 3 2 2 4 3 2 4 2 2 4 6 6 5 4 4 5 5 5 4 2 3 1 1 6 6 9 6 5 5 6 7 5 7 10 12 11 10 10 11 13 15 14 14 14
0 1 1 1 3 4 4 5 6 2 7 3 4 3 2 8 5 8 1 3 5 6 5 5 5 1 6 11 11 9 9 6 8 8 5 5 6 4 2 3 2 2 3 3 2 1 3 8 6 4 3 2 3 2 2 3 5 9 4 1 2 3 5 6 5 5 5 4 8 4 3 7 9 7 9 8 10 11 10 9 9 11 11 12 13 13 13 13
Wind_Direction
333 330 334 332 326 321 318 321 317 316 316 313 314 316 314 315 320 316 314 318 319 319 319 318 317 319 321 318 318 321 358 314 303 281 247 243 189 189 174 28 173 191 190 104 112 134 112 134 131 134 126 181 50 183 102 171 104 186 194 187 216 160 190 179 205 191 69 285 17 4 355 350 31 87 100 144 84 93 115 67 55 68 51 71 103 122 114 113
335 332 334 334 327 322 320 319 318 318 316 313 314 316 314 314 313 312 317 320 321 318 317 317 320 319 321 319 316 339 347 308 288 264 237 198 178 177 176 157 155 175 155 106 151 152 139 152 132 146 143 159 340 143 182 158 222 189 109 210 236 160 193 191 199 206 289 356 320 330 339 343 353 256 139 205 121 144 163 72 72 79 79 99 116 115 120 125
339 335 337 331 326 324 321 320 321 318 315 313 314 316 316 313 311 313 317 319 316 321 319 319 320 321 321 320 320 357 334 305 279 258 257 222 196 176 165 151 146 158 172 147 194 162 165 164 156 139 55 123 10 155 209 115 206 169 206 215 235 206 259 215 193 260 220 328 312 333 43 309 330 239 113 244 150 160 192 159 157 139 129 124 124 124 132 135
343 340 339 331 329 326 321 320 319 319 313 310 312 314 313 311 311 311 316 318 320 318 324 324 322 326 318 321 326 332 313 273 252 1 290 175 178 167 162 141 142 148 134 72 150 143 91 103 132 147 114 150 115 315 176 152 210 133 217 226 207 178 223 211 188 243 253 240 288 343 274 296 55 257 244 130 139 219 230 222 188 170 149 142 139 139 141 143
348 343 340 335 330 327 324 319 323 319 313 307 313 313 311 308 311 317 316 312 319 323 324 323 324 316 318 323 337 315 291 267 100 238 307 124 157 158 156 150 148 146 147 125 114 83 111 132 136 49 131 146 144 147 222 147 286 134 225 195 118 134 231 268 219 185 216 269 252 329 329 352 271 145 215 169 197 179 213 236 190 132 155 153 151 151 149 149
350 347 345 339 334 330 324 323 323 318 311 309 310 310 308 308 311 316 315 315 321 327 322 323 320 319 323 345 313 269 265 357 293 316 347 120 149 154 157 151 136 117 124 124 128 139 136 94 154 159 147 145 166 183 152 165 155 221 146 250 228 186 251 299 330 136 173 197 274 311 342 330 43 348 192 226 231 96 312 289 156 151 158 158 155 154 154 154
353 351 348 346 338 333 330 325 321 319 314 313 309 310 308 309 314 317 314 317 320 322 327 319 319 318 337 336 69 300 205 285 304 283 347 129 147 152 152 149 131 121 129 117 136 144 104 115 155 149 128 81 15 192 144 165 207 236 226 138 221 199 229 237 270 159 223 206 261 153 338 286 302 290 139 206 230 9 320 240 151 147 152 157 160 165 159 161
351 353 352 350 345 340 332 327 323 318 315 311 309 306 308 309 315 313 315 318 319 321 321 322 320 326 352 339 266 257 80 250 268 350 101 130 138 144 138 116 133 124 145 151 146 136 142 154 168 140 153 172 168 184 144 157 157 205 228 189 261 196 231 254 266 276 264 241 255 231 270 273 184 240 137 231 239 342 105 130 139 146 153 162 162 163 162 160
350 351 351 352 349 344 339 332 325 321 315 311 309 307 308 313 312 314 313 317 318 319 320 320 323 338 79 344 48 304 228 244 303 355 125 127 135 127 137 133 177 146 141 112 301 153 163 203 120 215 182 178 161 171 168 188 221 205 223 186 188 243 248 248 280 263 271 265 173 194 244 99 220 99 245 261 61 125 134 137 145 152 158 165 168 169 168 165
349 350 352 352 351 349 343 337 330 323 319 313 311 312 310 316 314 312 313 315 316 317 314 323 317 343 3 3 247 311 75 88 25 83 126 128 128 141 43 130 155 135 135 144 119 127 187 182 186 187 128 66 171 140 156 195 207 158 189 208 231 263 331 282 233 276 52 257 183 230 255 89 59 209 233 69 98 135 130 139 155 161 165 167 169 174 171 170
351 350 350 350 350 350 349 341 333 326 321 318 316 314 317 310 310 308 314 311 320 318 317 320 348 15 22 339 67 268 164 101 9 111 128 138 140 157 150 154 156 142 120 126 163 186 144 172 186 126 262 157 164 142 210 162 114 165 177 211 239 303 255 248 296 267 303 276 190 217 246 124 121 188 249 123 142 152 141 151 165 169 166 168 171 171 172 166
350 350 350 349 348 347 349 347 336 329 323 320 312 311 310 311 308 311 310 318 306 350 337 300 357 336 323 165 196 233 30 78 132 122 136 153 161 162 118 163 167 148 151 157 202 151 102 97 146 227 182 174 144 155 204 177 221 64 188 274 284 331 269 172 225 359 198 236 157 180 203 229 135 227 91 154 153 159 150 159 168 172 169 169 172 170 172 170
349 350 349 348 347 346 346 347 343 332 326 322 320 316 316 317 313 315 308 296 334 324 41 31 107 274 252 294 224 234 224 167 131 123 125 94 96 52 129 55 14 96 147 156 177 171 160 166 221 125 101 174 149 291 109 130 52 133 97 294 286 339 252 120 229 336 181 257 158 163 236 217 223 210 97 167 159 152 148 163 170 172 174 172 173 175 175 161
349 349 349 347 347 345 344 345 345 338 330 324 321 316 317 316 314 299 299 280 301 318 225 226 146 324 136 251 273 203 221 166 121 137 162 153 116 53 102 85 76 87 63 96 145 185 167 187 60 91 174 233 108 194 201 23 22 211 112 124 303 229 215 146 80 116 196 114 181 182 243 216 237 244 194 174 173 161 160 168 173 173 175 175 174 174 178 172
349 348 348 348 346 344 343 343 345 343 332 328 319 317 312 307 304 292 293 308 237 191 233 181 27 93 237 268 257 288 207 131 173 202 174 156 132 103 93 110 83 79 43 85 96 126 129 132 334 281 92 13 228 290 289 49 35 36 171 200 155 226 197 274 188 197 210 86 250 194 245 242 246 75 118 174 180 176 163 171 176 177 178 176 172 175 174 168
349 348 347 345 345 344 342 342 342 342 334 326 323 316 310 290 274 282 279 264 86 147 58 141 203 206 303 289 87 285 103 271 276 204 183 152 159 118 133 113 109 72 119 354 66 73 100 145 126 113 201 135 134 137 97 156 120 35 247 179 180 226 257 303 162 252 275 94 106 218 246 60 248 283 233 190 181 184 168 176 180 182 181 174 175 176 179 153
348 347 346 344 343 342 341 340 341 344 338 328 324 320 300 269 262 264 295 114 138 70 191 93 126 197 288 106 279 301 274 251 147 103 132 309 94 133 121 118 133 113 47 54 58 85 16 188 24 139 37 73 41 154 154 145 159 187 358 198 160 199 156 201 318 124 317 234 176 215 237 233 277 3 137 183 188 180 180 178 184 185 183 180 178 179 182 171
346 345 344 342 341 341 339 339 340 343 341 335 328 313 305 317 349 80 90 100 97 144 19 96 150 286 254 313 267 161 148 283 246 111 110 129 129 133 118 148 93 117 128 100 46 170 313 175 337 151 145 57 180 166 198 191 188 181 170 167 180 227 250 295 258 124 171 79 217 181 232 241 246 102 189 184 193 196 189 175 185 189 187 181 184 186 186 186
344 344 343 342 340 339 337 336 339 342 341 337 311 355 53 67 58 275 138 173 169 149 228 171 193 299 240 248 305 299 238 200 91 154 141 140 184 125 96 75 125 136 142 157 98 189 81 112 93 150 193 167 190 187 194 140 148 160 151 155 151 225 168 210 232 129 224 203 232 192 213 226 233 231 181 196 193 198 184 173 183 195 194 191 191 191 191 191
343 342 342 341 339 337 335 333 335 340 340 342 338 321 178 208 197 193 173 226 225 241 273 253 199 298 308 284 273 271 240 51 186 86 131 243 142 168 62 132 113 68 129 184 118 182 249 168 189 196 192 201 201 198 185 128 119 103 114 151 183 256 266 259 265 268 271 231 236 226 226 231 241 231 181 190 190 198 193 188 186 191 194 196 196 196 196 195
340 340 339 338 337 336 332 331 331 334 333 320 300 277 350 103 17 312 280 226 226 238 247 237 194 204 218 108 319 354 37 324 74 153 176 129 120 147 187 104 58 159 24 36 123 63 206 169 222 217 210 180 196 139 112 102 60 160 136 215 216 198 260 223 115 29 272 236 290 77 222 235 234 207 134 167 190 203 200 194 192 195 195 197 198 199 199 193
339 338 337 336 335 334 331 327 326 325 337 334 285 242 304 238 34 75 38 299 226 223 225 241 41 257 270 242 153 76 57 336 280 213 110 186 153 188 185 143 155 177 56 164 115 141 163 205 219 222 116 98 86 140 136 154 136 94 234 190 267 228 255 283 54 208 61 212 262 150 226 243 239 47 255 191 194 211 210 202 201 189 191 196 201 202 199 187
338 336 335 334 333 331 330 324 349 10 244 211 198 220 243 211 34 303 224 267 280 203 221 223 227 241 255 229 225 162 201 204 216 188 175 172 113 208 139 159 153 109 118 186 179 140 195 222 233 126 147 118 78 116 129 100 108 173 145 202 237 95 232 171 129 89 57 271 297 182 202 309 338 357 231 259 222 312 255 229 229 204 201 203 202 199 198 196
336 335 333 333 332 331 325 335 110 122 195 220 234 222 242 328 353 336 159 255 303 311 210 207 204 206 217 185 185 170 174 207 157 226 164 165 159 148 134 153 114 160 184 166 178 196 204 59 54 128 152 170 135 156 145 172 198 222 218 220 258 219 210 226 85 68 95 67 2 155 130 123 35 159 147 128 213 258 193 191 194 206 216 208 203 207 207 203
334 334 332 331 332 328 326 330 112 211 195 220 249 250 261 269 294 231 196 302 233 270 166 148 180 221 210 66 136 166 203 68 222 187 168 164 117 141 183 134 148 197 142 146 105 209 252 186 131 114 143 141 127 148 202 175 211 188 223 215 227 222 223 234 325 317 184 183 63 249 173 135 24 356 213 50 176 214 198 211 208 197 203 193 199 204 207 210
332 331 332 329 331 330 317 190 307 354 284 253 221 207 220 246 235 201 142 67 295 276 293 282 170 30 135 131 160 145 123 211 194 191 162 181 136 141 90 144 162 210 152 160 196 236 222 83 184 191 148 167 189 204 203 206 179 188 225 197 223 205 234 303 265 169 203 191 88 339 254 118 5 134 111 356 226 203 157 223 212 196 197 202 211 209 205 202
330 329 329 330 329 336 335 252 56 286 307 284 133 55 297 314 153 156 262 310 305 236 166 35 177 154 245 175 168 176 162 196 71 103 147 208 172 320 168 143 108 44 134 149 69 219 131 121 111 75 126 153 188 223 201 184 157 204 157 157 164 192 222 221 186 216 294 12 166 6 348 150 156 144 86 307 199 184 202 214 222 214 205 204 200 199 199 199
326 326 325 325 326 325 269 305 319 230 237 133 128 324 326 322 121 41 96 358 287 254 327 216 260 130 286 148 204 206 343 116 139 192 234 193 114 20 253 187 194 175 162 161 208 87 161 154 176 144 107 161 201 218 166 183 173 257 155 176 161 189 196 155 201 119 12 249 177 166 9 171 151 76 264 221 180 167 206 207 213 218 215 209 204 203 202 201
323 324 322 321 318 306 276 223 213 239 229 6 326 336 344 334 191 101 107 257 182 108 27 113 310 120 81 103 226 261 333 336 61 85 64 81 346 142 194 192 183 112 30 219 224 145 262 190 196 168 168 233 219 207 161 175 206 94 131 91 86 84 80 153 142 134 186 211 213 103 349 187 140 29 296 6 16 7 322 204 211 218 220 213 209 207 203 199
320 323 320 317 316 278 193 217 231 239 334 329 325 329 331 141 86 205 27 254 312 81 131 96 231 198 123 152 240 257 265 3 60 110 101 160 167 51 33 111 138 141 200 44 268 196 359 349 126 177 221 225 113 47 185 189 18 132 185 102 83 53 43 70 54 3 143 227 229 9 358 307 159 171 142 128 81 1 331 302 121 250 243 230 216 207 203 201
320 318 316 312 274 246 171 256 250 274 264 296 290 274 137 44 161 92 192 235 286 294 323 12 154 95 136 166 200 236 169 323 108 142 141 142 131 52 145 98 60 97 49 336 249 341 341 57 215 226 69 95 106 87 56 16 114 171 147 136 113 63 348 60 13 5 178 211 73 18 352 316 192 168 195 272 301 257 295 304 320 328 282 252 236 225 212 200
320 316 308 292 239 176 204 230 245 53 25 312 320 41 131 196 4 191 212 304 230 339 48 336 3 131 184 102 33 179 191 113 166 161 158 177 159 177 187 187 156 123 223 196 230 56 236 217 249 318 237 164 139 100 90 116 260 173 122 138 192 156 72 190 198 200 209 204 60 9 22 170 236 23 327 320 335 350 334 307 307 309 304 292 266 242 213 191
320 314 307 280 238 221 237 258 308 319 331 340 30 70 133 132 221 201 265 326 246 19 128 205 275 300 3 140 228 160 13 199 174 205 118 62 156 201 38 205 184 177 218 177 206 21 250 326 316 249 238 212 171 201 130 178 194 179 176 148 167 165 152 204 140 358 328 274 58 356 334 307 52 268 311 301 332 342 328 312 297 285 283 286 282 259 191 155
319 314 307 214 213 218 235 230 255 298 309 359 177 78 56 151 236 207 221 238 284 323 278 21 326 31 178 192 220 164 187 259 159 184 183 152 176 192 202 114 156 174 79 126 197 184 202 207 222 156 211 142 189 196 185 164 175 192 43 180 196 163 174 188 192 198 213 179 97 47 198 178 171 119 316 314 330 333 348 342 323 288 276 270 280 303 117 116
316 303 255 340 256 241 234 225 188 164 169 174 94 143 176 221 306 182 199 256 263 324 315 30 252 20 219 294 287 252 215 205 184 137 175 143 193 192 173 195 230 104 79 190 215 99 260 254 269 228 9 130 193 207 94 97 81 63 191 57 132 211 147 232 108 235 167 151 189 179 235 357 77 157 305 318 311 28 22 15 7 10 21 68 86 93 105 111
320 352 342 212 231 257 203 206 186 164 192 133 145 174 207 184 199 180 104 175 50 6 308 339 76 211 267 288 328 130 56 259 165 164 148 203 163 189 176 183 179 189 154 196 145 196 59 244 357 342 129 216 265 152 186 182 214 155 160 194 205 31 112 92 101 45 351 2 207 41 260 196 151 161 150 37 69 41 21 21 22 16 20 52 78 100 115 124
2 323 119 312 276 314 186 161 162 157 203 171 162 213 194 262 214 174 309 98 123 76 48 285 312 269 279 272 306 23 32 77 120 188 198 141 234 195 186 224 187 186 203 155 232 263 191 226 340 134 142 34 330 279 83 31 81 110 210 172 115 89 36 146 186 60 8 207 190 82 23 297 184 163 348 140 17 22 12 12 23 37 34 54 63 98 123 133
334 347 239 355 337 339 150 155 150 141 117 159 206 201 75 218 181 203 351 58 61 23 92 8 314 9 282 297 73 42 26 195 153 173 189 177 214 128 158 180 184 193 203 192 210 192 171 270 284 353 300 3 355 152 93 73 347 226 286 137 182 177 188 42 110 180 163 207 186 151 295 269 259 53 2 343 345 343 349 354 22 29 28 34 56 69 50 34
248 287 51 348 344 37 130 156 186 140 151 185 206 209 211 245 22 233 200 102 175 104 321 247 248 13 77 341 272 263 269 203 145 179 168 204 209 180 223 153 187 340 252 151 180 120 349 202 269 217 145 343 325 184 190 145 62 58 124 123 356 273 141 163 218 112 191 185 110 173 207 193 121 341 329 297 325 330 331 341 13 34 36 30 27 33 36 40
36 50 35 359 18 49 118 173 123 92 115 199 177 216 79 209 246 239 226 209 269 177 240 314 168 304 298 240 166 331 326 152 187 173 212 134 196 29 306 359 148 95 351 224 146 194 135 9 229 55 285 87 184 340 225 177 155 120 158 146 104 42 309 38 63 73 214 162 195 152 193 197 104 350 308 307 316 318 312 309 358 38 51 44 36 32 37 49
234 86 46 18 13 144 271 274 118 157 142 16 330 317 343 298 332 281 291 213 233 285 214 172 162 238 223 350 294 152 292 18 219 205 191 128 207 195 7 333 314 134 131 85 126 183 104 181 204 314 175 210 12 356 279 236 282 178 170 184 165 140 142 176 192 105 315 169 178 170 202 116 48 353 330 316 320 316 308 292 15 67 71 63 55 48 44 44
32 44 336 349 339 167 350 102 41 156 103 213 194 191 265 192 291 280 43 25 237 275 39 187 231 243 169 224 245 221 279 290 179 219 323 161 40 23 11 341 277 117 139 164 184 222 142 133 92 121 216 344 1 50 89 69 133 117 259 145 155 21 114 171 187 180 71 37 63 341 187 143 32 355 347 345 342 347 357 138 114 91 78 70 62 60 57 57
30 68 264 328 334 207 349 67 327 30 317 297 307 245 300 327 279 291 80 7 163 34 330 207 215 191 241 239 209 219 207 233 187 275 114 115 101 95 297 337 299 64 81 34 44 121 172 77 91 30 78 246 259 231 260 33 334 207 55 53 157 167 178 178 137 163 153 131 170 129 215 119 67 24 5 9 15 25 38 53 92 92 82 73 71 62 58 60
193 337 324 349 351 189 72 63 352 328 312 316 24 341 341 1 14 7 66 34 22 358 326 302 61 81 327 45 152 199 198 197 17 38 115 12 90 293 30 6 4 40 339 193 154 210 170 330 101 119 119 346 318 172 247 49 71 33 116 66 15 88 84 103 107 350 124 202 256 166 199 159 93 10 31 27 30 40 37 34 43 80 72 65 64 58 53 52
215 203 263 299 352 37 65 279 279 272 297 338 334 29 354 357 35 337 35 47 14 34 292 4 2 317 324 16 85 103 37 343 96 6 3 36 68 347 22 21 331 98 50 72 98 110 79 18 3 178 170 173 183 195 187 188 169 28 27 12 337 149 136 146 140 180 204 157 177 206 127 88 125 35 35 31 34 50 51 50 57 58 65 65 61 59 55 55
22 36 331 329 18 28 78 330 73 318 316 355 41 3 355 332 333 7 78 74 28 78 48 314 315 354 29 42 72 27 27 41 341 87 14 31 5 20 8 341 10 109 126 112 122 95 99 83 47 347 260 208 42 18 351 298 258 148 77 27 355 354 29 73 79 153 206 151 190 216 41 138 96 17 22 30 35 38 45 39 47 57 63 67 65 62 61 60
143 58 336 345 321 44 37 27 16 357 332 275 75 355 357 348 288 20 16 90 27 22 45 40 15 17 352 19 128 81 27 342 26 93 21 331 321 299 308 314 321 3 52 95 350 85 96 70 20 51 50 49 285 195 321 328 97 8 23 344 342 355 311 144 176 192 110 125 212 111 152 126 68 30 36 35 40 56 63 50 54 60 60 65 69 69 65 62
62 258 180 312 10 347 347 12 3 354 5 49 62 355 1 9 36 30 332 38 151 26 27 18 30 39 327 255 61 79 355 21 33 21 318 25 300 340 21 40 52 329 345 72 335 92 110 101 271 100 49 41 9 38 45 66 60 69 51 12 8 342 1 96 64 46 288 212 203 128 119 100 78 60 51 50 51 65 68 57 57 66 70 69 67 63 61 59
90 60 190 305 108 4 336 289 322 352 31 23 109 21 12 17 37 18 355 318 23 15 5 86 11 8 17 40 122 91 10 52 34 12 39 345 38 329 51 335 92 14 10 59 31 95 105 62 352 89 99 36 23 26 48 72 64 42 31 36 33 46 49 62 61 24 56 79 87 114 96 85 82 65 61 52 77 82 71 69 69 62 60 66 66 63 60 58
31 359 17 6 89 53 351 339 345 358 48 3 49 11 7 11 22 1 13 13 16 2 356 68 356 355 30 49 47 73 33 21 21 7 11 346 315 26 65 65 323 335 14 35 38 300 102 242 163 78 66 6 347 8 50 52 48 42 33 41 42 65 69 66 89 73 75 76 77 104 101 94 68 64 84 89 92 91 79 66 61 60 60 64 66 62 60 58
353 111 272 102 47 360 338 8 355 15 42 9 27 355 354 7 7 343 62 45 51 18 354 342 307 306 20 48 61 79 41 315 277 266 292 311 9 3 355 107 37 333 350 10 16 340 66 145 77 116 102 281 334 350 14 18 50 33 350 355 27 45 65 354 67 307 151 145 132 111 100 120 125 104 100 92 88 77 73 68 61 55 54 60 63 60 57 53
164 194 54 140 79 347 17 309 8 355 42 0 351 320 354 351 338 345 91 54 70 44 1 327 315 245 26 29 19 353 323 278 260 267 278 268 266 289 290 301 326 293 341 346 313 118 139 139 163 150 142 220 173 91 60 19 14 322 266 29 17 34 95 112 65 28 21 132 150 165 116 116 129 133 109 89 81 77 71 62 71 63 56 59 60 59 57 53